Location: Newark
(31.5350°N, 35.0986°E)
Time: 23:39:39
(UTC+00:00)

Courier 1B - Pass Details

Date: 21 September 2019
Orbit: 962 x 1209 km, 28.3° (Epoch: 22 October)

Event Time Altitude Azimuth Distance (km) Brightness Sun altitude
Exits shadow 01:57:38 16° 205° (SSW) 2,328 9.1 -19.7°
Maximum altitude 02:01:48 30° 155° (SSE) 1,735 8.9 -18.8°
Drops below altitude 10° 02:07:40 10° 97° (E) 2,864 11.0 -17.6°
Sets 02:10:49 0° 87° (E) 3,863 12.3 -16.9°
